Kalamazoo, MI

12:36 PM EDT on April 19, 2018 (GMT -0400)
Kalamazoo-Battle Creek International

Weather History for KAZO - June, 2013

Change the Weather History Date:

Sunday, June 9, 2013

  Actual Average Record
Temperature  
Mean Temperature 70 °F 66 °F  
Max Temperature 81 °F 78 °F 93 °F (1968)
Min Temperature 59 °F 56 °F 41 °F (1969)
Degree Days  
Heating Degree Days 0 2  
Month to date heating degree days 36 28  
Since 1 June heating degree days 36 28  
Since 1 July heating degree days 6308 6396  
Cooling Degree Days 5 4  
Month to date cooling degree days 9 29  
Year to date cooling degree days 89 70  
Since 1 June cooling degree days 9 29  
Growing Degree Days 20 (Base 50)    
Moisture  
Dew Point 58 °F    
Average Humidity 68    
Maximum Humidity 84    
Minimum Humidity 51    
Precipitation  
Precipitation T in 0.12 in 0.74 in (1962)
Month to date precipitation 0.30 1.23  
Year to date precipitation 15.36 13.67  
Sea Level Pressure  
Sea Level Pressure 29.99 in    
Wind  
Wind Speed 5 mph (ESE)    
Max Wind Speed 12 mph    
Max Gust Speed 28 mph    
Visibility 10 miles    
Events      
T = Trace of Precipitation, MM = Missing Value Source: NWS Daily Summary

Daily Weather History Graph

Daily Weather History Graph

Search for Another Location

Airport or City:

Astronomy

Jun. 09, 2013 Rise Set
Actual Time 6:05 AM EDT 9:17 PM EDT
Civil Twilight 5:31 AM EDT 9:52 PM EDT
Nautical Twilight 4:47 AM EDT 10:36 PM EDT
Astronomical Twilight 3:53 AM EDT 11:29 PM EDT
Moon 7:02 AM EDT (6/9) 10:02 PM EDT (6/9)
Length of Visible Light 16h 20m
Length of Day
15h 11m
New Moon, 1% of the Moon is Illuminated
Jun 9
New Moon
Jun 16
First Quarter
Jun 23
Full
Jun 30
Last Quarter
Jul 8
New

Hourly Weather History & Observations

Time (EDT) Temp. Heat Index Dew Point Humidity Pressure Visibility Wind Dir Wind Speed Gust Speed Precip Events Conditions
12:53 AM 62.1 °F - 53.1 °F 72% 30.05 in 10.0 mi Calm Calm - N/A   Partly Cloudy
1:53 AM 61.0 °F - 54.0 °F 78% 30.05 in 10.0 mi Calm Calm - N/A   Scattered Clouds
2:53 AM 62.1 °F - 54.0 °F 75% 30.05 in 10.0 mi Calm Calm - N/A   Mostly Cloudy
3:53 AM 60.1 °F - 55.0 °F 83% 30.05 in 10.0 mi Calm Calm - N/A   Mostly Cloudy
4:53 AM 61.0 °F - 54.0 °F 78% 30.05 in 10.0 mi Variable 3.5 mph - N/A   Scattered Clouds
5:53 AM 60.1 °F - 54.0 °F 80% 30.06 in 9.0 mi Calm Calm - N/A   Clear
6:53 AM 60.1 °F - 54.0 °F 80% 30.06 in 6.0 mi Calm Calm - N/A   Haze
7:53 AM 63.0 °F - 55.0 °F 75% 30.06 in 7.0 mi SE 3.5 mph - N/A   Scattered Clouds
8:53 AM 66.9 °F - 57.0 °F 70% 30.06 in 9.0 mi SE 3.5 mph - N/A   Scattered Clouds
9:53 AM 71.1 °F - 57.9 °F 63% 30.05 in 10.0 mi SSE 10.4 mph 16.1 mph N/A   Partly Cloudy
10:53 AM 72.0 °F - 59.0 °F 64% 30.04 in 10.0 mi SE 6.9 mph - N/A   Overcast
11:53 AM 75.9 °F - 61.0 °F 60% 30.03 in 10.0 mi Variable 3.5 mph - N/A   Scattered Clouds
12:53 PM 77.0 °F - 62.1 °F 60% 30.02 in 10.0 mi SE 5.8 mph - N/A   Overcast
1:53 PM 77.0 °F - 60.1 °F 56% 30.00 in 10.0 mi SE 6.9 mph - N/A   Mostly Cloudy
2:53 PM 81.0 °F 81.6 °F 60.1 °F 49% 29.97 in 10.0 mi SE 8.1 mph - N/A   Scattered Clouds
3:53 PM 79.0 °F - 61.0 °F 54% 29.95 in 10.0 mi ESE 9.2 mph - N/A   Scattered Clouds
4:53 PM 78.1 °F - 61.0 °F 56% 29.93 in 10.0 mi ESE 9.2 mph 17.3 mph N/A   Mostly Cloudy
5:53 PM 79.0 °F - 61.0 °F 54% 29.93 in 10.0 mi SE 10.4 mph 17.3 mph 0.00 in   Partly Cloudy
6:53 PM 77.0 °F - 62.1 °F 60% 29.92 in 10.0 mi ESE 8.1 mph 17.3 mph N/A   Partly Cloudy
7:53 PM 75.9 °F - 62.1 °F 62% 29.91 in 10.0 mi East 4.6 mph - N/A   Clear
8:53 PM 73.0 °F - 60.1 °F 64% 29.91 in 10.0 mi East 8.1 mph - N/A   Partly Cloudy
9:53 PM 72.0 °F - 57.9 °F 61% 29.89 in 10.0 mi East 5.8 mph - N/A   Clear
10:53 PM 71.1 °F - 57.0 °F 61% 29.90 in 10.0 mi ESE 6.9 mph - N/A   Scattered Clouds
11:53 PM 70.0 °F - 57.9 °F 65% 29.90 in 10.0 mi Variable 4.6 mph - N/A   Overcast